EN

Hourly Weather Godylovo

Today, 18 May, Tuesday

Time Temperature Precipitation Wind Pressure Humidity
00:00 +14°C° 0.3 mm 2 mps 736 mmHg 97%
01:00 +14°C° 0.3 mm 2 mps 736 mmHg 98%
02:00 +13°C° 0 mm 3 mps 736 mmHg 98%
03:00 +13°C° 0 mm 3 mps 736 mmHg 98%
04:00 +14°C° 0 mm 4 mps 736 mmHg 98%
05:00 +14°C° 0 mm 4 mps 736 mmHg 98%
06:00 +14°C° 0 mm 4 mps 737 mmHg 95%
07:00 +14°C° 0 mm 4 mps 737 mmHg 93%
08:00 +15°C° 0 mm 5 mps 737 mmHg 90%
09:00 +17°C° 0 mm 4 mps 738 mmHg 86%
10:00 +17°C° 0 mm 4 mps 738 mmHg 83%
11:00 +18°C° 0 mm 3 mps 738 mmHg 79%
12:00 +19°C° 0.1 mm 3 mps 737 mmHg 77%
13:00 +19°C° 0.1 mm 3 mps 737 mmHg 75%
14:00 +20°C° 0.1 mm 3 mps 737 mmHg 73%
15:00 +19°C° 0.9 mm 3 mps 737 mmHg 78%
16:00 +18°C° 0.9 mm 3 mps 737 mmHg 84%
17:00 +17°C° 0.9 mm 4 mps 736 mmHg 89%
18:00 +17°C° 0.3 mm 3 mps 736 mmHg 90%
19:00 +16°C° 0.3 mm 3 mps 736 mmHg 92%
20:00 +15°C° 0.3 mm 2 mps 736 mmHg 93%
21:00 +15°C° 0.3 mm 2 mps 736 mmHg 94%
22:00 +15°C° 0.3 mm 2 mps 735 mmHg 95%
23:00 +15°C° 0.3 mm 2 mps 735 mmHg 96%

Tomorrow, 19 May, Wednesday

Time Temperature Precipitation Wind Pressure Humidity
00:00 +15°C° 0.5 mm 2 mps 735 mmHg 96%
01:00 +14°C° 0.5 mm 2 mps 735 mmHg 97%
02:00 +14°C° 0.5 mm 2 mps 735 mmHg 98%
03:00 +13°C° 0.3 mm 3 mps 735 mmHg 98%
04:00 +13°C° 0.3 mm 3 mps 735 mmHg 98%
05:00 +12°C° 0.3 mm 3 mps 735 mmHg 98%
06:00 +13°C° 0.1 mm 4 mps 736 mmHg 94%
07:00 +14°C° 0.1 mm 4 mps 736 mmHg 91%
08:00 +15°C° 0.1 mm 5 mps 736 mmHg 88%
09:00 +15°C° 0.1 mm 5 mps 737 mmHg 87%
10:00 +15°C° 0.1 mm 5 mps 737 mmHg 86%
11:00 +15°C° 0.1 mm 5 mps 737 mmHg 85%
12:00 +16°C° 0 mm 5 mps 737 mmHg 81%
13:00 +18°C° 0 mm 4 mps 738 mmHg 77%
14:00 +18°C° 0 mm 4 mps 738 mmHg 73%
15:00 +18°C° 0.4 mm 4 mps 738 mmHg 75%
16:00 +18°C° 0.4 mm 3 mps 738 mmHg 76%
17:00 +18°C° 0.4 mm 3 mps 738 mmHg 78%
18:00 +16°C° 0.3 mm 3 mps 738 mmHg 83%
19:00 +14°C° 0.3 mm 3 mps 738 mmHg 88%
20:00 +13°C° 0.3 mm 2 mps 739 mmHg 93%
21:00 +12°C° 0 mm 3 mps 739 mmHg 94%
22:00 +12°C° 0 mm 3 mps 739 mmHg 95%
23:00 +11°C° 0 mm 3 mps 739 mmHg 96%

Day after tomorrow, 20 May, Thursday

Time Temperature Precipitation Wind Pressure Humidity
00:00 +11°C° 0.2 mm 3 mps 738 mmHg 97%
01:00 +11°C° 0.2 mm 3 mps 738 mmHg 97%
02:00 +11°C° 0.2 mm 4 mps 738 mmHg 97%
03:00 +11°C° 0.2 mm 4 mps 738 mmHg 96%
04:00 +11°C° 0.2 mm 4 mps 738 mmHg 96%
05:00 +10°C° 0.2 mm 5 mps 738 mmHg 96%
06:00 +9°C° 0.6 mm 5 mps 738 mmHg 95%
07:00 +9°C° 0.6 mm 5 mps 738 mmHg 94%
08:00 +9°C° 0.6 mm 6 mps 738 mmHg 93%
09:00 +10°C° 0.1 mm 6 mps 738 mmHg 89%
10:00 +10°C° 0.1 mm 6 mps 739 mmHg 85%
11:00 +11°C° 0.1 mm 6 mps 739 mmHg 81%
12:00 +11°C° 0 mm 6 mps 739 mmHg 80%
13:00 +13°C° 0 mm 6 mps 740 mmHg 79%
14:00 +13°C° 0 mm 6 mps 740 mmHg 78%
15:00 +13°C° 0 mm 5 mps 740 mmHg 77%
16:00 +12°C° 0 mm 5 mps 741 mmHg 77%
17:00 +12°C° 0 mm 4 mps 741 mmHg 76%
18:00 +12°C° 0 mm 3 mps 741 mmHg 79%
19:00 +11°C° 0 mm 3 mps 742 mmHg 82%
20:00 +10°C° 0 mm 2 mps 742 mmHg 84%
21:00 +10°C° 0 mm 2 mps 742 mmHg 88%
22:00 +9°C° 0 mm 3 mps 743 mmHg 91%
23:00 +9°C° 0 mm 3 mps 743 mmHg 94%

21 May, Friday

Time Temperature Precipitation Wind Pressure Humidity
00:00 +8°C° 0 mm 3 mps 743 mmHg 94%
01:00 +8°C° 0 mm 3 mps 744 mmHg 94%
02:00 +8°C° 0 mm 3 mps 744 mmHg 95%
03:00 +8°C° 0 mm 2 mps 744 mmHg 94%
04:00 +8°C° 0 mm 2 mps 745 mmHg 94%
05:00 +8°C° 0 mm 2 mps 745 mmHg 93%
06:00 +9°C° 0 mm 2 mps 746 mmHg 86%
07:00 +12°C° 0 mm 2 mps 746 mmHg 80%
08:00 +13°C° 0 mm 2 mps 746 mmHg 73%
09:00 +14°C° 0 mm 2 mps 747 mmHg 68%
10:00 +15°C° 0 mm 2 mps 747 mmHg 64%
11:00 +17°C° 0 mm 2 mps 747 mmHg 59%
12:00 +17°C° 0 mm 2 mps 747 mmHg 56%
13:00 +17°C° 0 mm 2 mps 747 mmHg 53%
14:00 +18°C° 0 mm 2 mps 747 mmHg 49%
15:00 +18°C° 0 mm 2 mps 747 mmHg 52%
16:00 +18°C° 0 mm 2 mps 747 mmHg 55%
17:00 +18°C° 0 mm 1 mps 747 mmHg 57%
18:00 +16°C° 0 mm 2 mps 747 mmHg 63%
19:00 +14°C° 0 mm 2 mps 747 mmHg 69%
20:00 +12°C° 0 mm 2 mps 748 mmHg 75%
21:00 +10°C° 0 mm 2 mps 748 mmHg 76%
22:00 +9°C° 0 mm 2 mps 748 mmHg 78%
23:00 +8°C° 0 mm 2 mps 748 mmHg 79%

22 May, Saturday

Time Temperature Precipitation Wind Pressure Humidity
00:00 +9°C° 0 mm 1 mps 748 mmHg 79%
01:00 +9°C° 0 mm 1 mps 748 mmHg 79%
02:00 +8°C° 0 mm 1 mps 748 mmHg 80%
03:00 +8°C° 0 mm 1 mps 748 mmHg 80%
04:00 +9°C° 0 mm 1 mps 748 mmHg 80%
05:00 +9°C° 0 mm 1 mps 748 mmHg 81%
06:00 +11°C° 0 mm 1 mps 748 mmHg 76%
07:00 +13°C° 0 mm 1 mps 748 mmHg 71%
08:00 +15°C° 0 mm 1 mps 748 mmHg 66%
09:00 +16°C° 0 mm 1 mps 748 mmHg 62%
10:00 +17°C° 0 mm 2 mps 748 mmHg 57%
11:00 +18°C° 0 mm 2 mps 748 mmHg 52%
12:00 +19°C° 0 mm 2 mps 748 mmHg 51%
13:00 +19°C° 0 mm 3 mps 747 mmHg 49%
14:00 +20°C° 0 mm 3 mps 747 mmHg 48%
15:00 +20°C° 0 mm 3 mps 747 mmHg 53%
16:00 +19°C° 0 mm 2 mps 747 mmHg 58%
17:00 +19°C° 0 mm 2 mps 746 mmHg 63%
18:00 +17°C° 0 mm 2 mps 746 mmHg 68%
19:00 +16°C° 0 mm 2 mps 746 mmHg 73%
20:00 +13°C° 0 mm 3 mps 746 mmHg 79%
21:00 +13°C° 0 mm 3 mps 746 mmHg 80%
22:00 +12°C° 0 mm 3 mps 746 mmHg 80%
23:00 +12°C° 0 mm 3 mps 745 mmHg 81%

23 May, Sunday

Time Temperature Precipitation Wind Pressure Humidity
00:00 +11°C° 0 mm 3 mps 745 mmHg 82%
01:00 +11°C° 0 mm 3 mps 745 mmHg 84%
02:00 +11°C° 0 mm 3 mps 745 mmHg 85%
03:00 +11°C° 0 mm 4 mps 744 mmHg 86%
04:00 +12°C° 0 mm 4 mps 744 mmHg 86%
05:00 +12°C° 0 mm 4 mps 744 mmHg 87%
06:00 +13°C° 0 mm 5 mps 743 mmHg 84%
07:00 +14°C° 0 mm 5 mps 743 mmHg 82%
08:00 +16°C° 0 mm 6 mps 743 mmHg 79%
09:00 +16°C° 0.2 mm 6 mps 743 mmHg 77%
10:00 +17°C° 0.2 mm 6 mps 742 mmHg 76%
11:00 +18°C° 0.2 mm 7 mps 742 mmHg 74%
12:00 +17°C° 0.4 mm 7 mps 743 mmHg 74%
13:00 +16°C° 0.4 mm 7 mps 743 mmHg 74%
14:00 +16°C° 0.4 mm 6 mps 744 mmHg 74%
15:00 +15°C° 0 mm 6 mps 744 mmHg 72%
16:00 +15°C° 0 mm 5 mps 744 mmHg 71%
17:00 +15°C° 0 mm 4 mps 744 mmHg 69%
18:00 +14°C° 0 mm 4 mps 745 mmHg 74%
19:00 +13°C° 0 mm 3 mps 745 mmHg 79%
20:00 +11°C° 0 mm 3 mps 745 mmHg 83%
21:00 +11°C° 0 mm 3 mps 745 mmHg 85%
22:00 +10°C° 0 mm 2 mps 745 mmHg 88%
23:00 +10°C° 0 mm 2 mps 746 mmHg 90%
Show more